Regional Weather Roundup
Issued by NWS State College, PA

Home | Current Version | Previous Version | Text Only | Print | Product List | Glossary On
Versions: 1 2 3 4 5 6 7 8 9 10 11 12 13 14 15 16 17 18 19 20 21 22 23 24 25 26 27 28 29 30 31 32 33 34 35 36 37 38 39 40 41 42 43 44 45 46 47 48 49 50
000
ASUS41 KCTP 272210
RWRCTP

REGIONAL WEATHER ROUNDUP
NATIONAL WEATHER SERVICE STATE COLLEGE PA
600 PM EDT MON JUL 27 2015

Note: "fair" indicates few or no clouds below 12,000 feet with no
significant weather and/or obstructions to visibility.

* = STATION THAT DOES NOT REPORT PRECIPITATION /E.G. RAIN...SNOW...ETC/
    THUNDER OR FOG.

PAZ002>004-007>009-013>016-020>023-029>032-272300-
WESTERN PENNSYLVANIA

CITY           SKY/WX    TMP DP  RH WIND       PRES   REMARKS
ERIE           FAIR      84  60  44 NE10      30.01S
MEADVILLE      LGT RAIN  87  54  32 N6        30.02S
FRANKLIN*      FAIR      86  57  37 N5        30.04R
NEW CASTLE     FAIR      88  60  38 CALM      30.01S
BEAVER COUNTY  SUNNY     86  63  45 N5        30.01S
BUTLER*        FAIR      84  64  51 N5        30.02R
PITTSBURGH INT FAIR      88  60  38 NE5       29.99S
PITTSBURGH     FAIR      86  59  39 VRB3      29.98S
INDIANA*       SUNNY     86  66  51 CALM      30.03S
LATROBE        MOSUNNY   86  64  48 CALM      29.99S
WASHINGTON CO* NOT AVBL
$$

PAZ004>006-010>012-017>019-024>028-033>037-041-042-045-046-049>053-272300-
CENTRAL PENNSYLVANIA

CITY           SKY/WX    TMP DP  RH WIND       PRES   REMARKS
BRADFORD       FAIR      83  53  35 N3        30.06S
DUBOIS         FAIR      85  60  42 E5        30.03R
CLEARFIELD     FAIR      81  65  58 E5        30.03R
JOHNSTOWN      CLOUDY    79  65  62 CALM      30.05R
ALTOONA        FAIR      81  68  64 E7        30.02R
STATE COLLEGE  MOSUNNY   82  70  65 CALM      30.01S
WILLIAMSPORT   FAIR      84  67  56 SE3       29.96S
SELINSGROVE    FAIR      82  71  69 CALM      29.98S
FT INDIANTOWN  FAIR      82  70  68 SE2       29.98F
CAPITAL CITY   FAIR      84  68  58 E5        29.97F
HARRISBURG     PTSUNNY   84  70  62 SE5       29.96F
YORK           FAIR      83  71  67 VRB3      29.98F
$$

PAZ038>040-043-044-047-048-054-055-060>062-067>071-272300-
EASTERN PENNSYLVANIA

CITY           SKY/WX    TMP DP  RH WIND       PRES   REMARKS
SCRANTON       FAIR      85  64  49 NW8       29.99S
MOUNT POCONO   PTSUNNY   77  67  71 S6        30.05S
ALLENTOWN      FAIR      84  69  60 CALM      29.97F
QUAKERTOWN*    FAIR      84  68  58 CALM      29.99S
READING        FAIR      84  68  58 CALM      29.96F
LANCASTER      FAIR      82  70  66 S8        29.98S
COATESVILLE    MOCLDY    81  73  78 SW5       30.00S
POTTSTOWN      PTSUNNY   80  72  76 S3        29.99S
BLUE BELL      PTSUNNY   81  72  74 SE3       29.97S
DOYLESTOWN     FAIR      80  68  66 S7        29.97F
WILLOW GROVE   NOT AVBL
NORTH PHILA    FAIR      81  68  64 SE5       29.98F
PHILADELPHIA   FAIR      84  68  58 S9        29.97F
$$



USA.gov is the U.S. government's official web portal to all federal, state and local government web resources and services.